Find Local Weather

World > North America > United States > Minnesota

Balaton, Minnesota Regional Weather

Lat: 44.23N, Lon: 95.87W
Wx Zone: MNZ072
Feedback
Expires:201810220200;;543148
ASUS43 KFSD 220102
RWRFSD

WEATHER ROUNDUP FOR SE SOUTH DAKOTA/SW MINNESOTA/NW IOWA
NATIONAL WEATHER SERVICE SIOUX FALLS SD
800 PM CDT SUN OCT 21 2018

NOTE: "FAIR" INDICATES FEW OR NO CLOUDS BELOW 12,000 FEET WITH NO
SIGNIFICANT WEATHER AND OR OBSTRUCTIONS TO VISIBILITY.



MNZ071-072-080-081-089-090-097-098-220200-
SOUTHWEST MINNESOTA
  
CITY           SKY/WX    TMP DP  RH WIND       PRES   REMARKS
FAIRMONT       CLEAR     46  33  60 W3        30.01                   
JACKSON        CLEAR     46  32  57 CALM      30.02R                  
LUVERNE        CLEAR     46  34  61 N5        30.02S                  
MARSHALL       CLEAR     41  30  65 W7        30.03R                  
MONTEVIDEO     CLEAR     48  28  46 N3        30.03R                  
PIPESTONE      CLEAR     52  36  54 N3        30.03R                  
REDWOOD FALLS  CLEAR     50  33  52 NW6       30.01R                  
TRACY          CLEAR     49  34  57 NW6       30.02R                  
WORTHINGTON    CLEAR     43  34  70 W6        30.03R                  
$$


SKY/WX - Weather  TMP - Temperature  DP - Dew Point  RH - Relative Humidity
WIND - Wind Direction/Speed PRES - Barometric Pressure